Regional Weather Roundup
Issued by NWS

Home | Current Version | Previous Version | Text Only | Print | Product List | Glossary On
Versions: 1 2 3 4 5 6 7 8 9 10 11 12 13 14 15 16 17 18 19 20 21 22 23 24 25 26 27 28 29 30 31 32 33 34 35 36 37 38 39 40 41 42 43 44 45 46 47 48 49 50
000
ASUS43 KLSX 261107
RWRMO

WEATHER SUMMARY FOR MISSOURI
NATIONAL WEATHER SERVICE SPRINGFIELD MO
600 AM CDT MON SEP 26 2016

NOTE: "FAIR" INDICATES FEW OR NO CLOUDS BELOW 12,000 FEET WITH NO
       SIGNIFICANT WEATHER AND/OR OBSTRUCTIONS TO VISIBILITY.
       CURRENT SKY AND/OR WEATHER CONDITIONS ARE NOT AVAILABLE FOR
       CHILLICOTHE AND FARMINGTON.

MOZ001>031-035>038-043-044-053-054-261200-
...NORTHERN AND WESTERN MISSOURI...

CITY           SKY/WX    TMP DP  RH WIND       PRES   REMARKS
KANSAS CTY INT CLEAR     50  46  86 NW7       30.24S
KANSAS C DTWN  CLEAR     54  48  80 NW6       30.23S
LEE`S SUMMIT   CLEAR     53  47  79 NW5       30.24R
ST JOSEPH      CLEAR     46  43  89 W3        30.24S
CHILLICOTHE      N/A     51  46  83 CALM      30.22S
KIRKSVILLE     CLEAR     48  44  86 W6        30.18S

$$
MOZ066>068-077>081-088>096-101>105-261200-
...SOUTHWEST MISSOURI...

CITY           SKY/WX    TMP DP  RH WIND       PRES   REMARKS
SPRINGFIELD    MOCLDY    58  55  90 NW3       30.20R
JOPLIN         CLOUDY    56  56 100 CALM      30.24
BRANSON        CLOUDY    57  57 100 CALM      30.22R

$$
MOZ032>034-039>042-045>050-055>058-069>072-261200-
...CENTRAL MISSOURI...

CITY           SKY/WX    TMP DP  RH WIND       PRES   REMARKS
COLUMBIA       MOCLDY    59  55  87 NW8       30.18R
JEFFERSON CITY MOCLDY    60  58  92 NW6       30.18R
ROLLA          CLOUDY    57  56  96 W5        30.17S
SEDALIA        CLEAR     56  51  84 NW6       30.22R
WHITEMAN AFB   PTCLDY    54  53  95 N5        30.20S
OSAGE BEACH    CLOUDY    58  58 100 CALM      30.20R

$$
MOZ051-052-059>065-261200-
...EAST CENTRAL MISSOURI...

CITY           SKY/WX    TMP DP  RH WIND       PRES   REMARKS
ST LOUIS INTL  CLOUDY    61  56  83 W8        30.15R
SPIRIT OF STL  CLOUDY    60  58  92 W3        30.14R
ST CHARLES       N/A     60  58  92 W5        30.14R

$$
MOZ072>076-082>087-097>100-106>115-261200-
...SOUTH CENTRAL AND SOUTHEAST MISSOURI...

CITY           SKY/WX    TMP DP  RH WIND       PRES   REMARKS
CAPE GIRARDEAU CLOUDY    64  55  72 N12       30.11R
FARMINGTON     LGT RAIN  57  55  93 NW3       30.17R
WEST PLAINS    LGT RAIN  57  53  86 N7        30.19R

$$


USA.gov is the U.S. government's official web portal to all federal, state and local government web resources and services.